Wetbulb
48.22 48.04 46.02 44.79 44.96 44.52 44.54 42.76 38.70 33.68 33.36 33.24 33.00 35.26 36.27 39.60 40.80 38.38 39.58 42.33 41.94 41.30 41.20 41.68 41.91 41.78 41.64 41.82 41.83 41.97 42.11 41.95 42.12 42.03 42.33 41.91 42.64 43.03
49.17 47.90 46.23 44.89 44.06 43.43 43.17 43.25 41.16 39.21 34.81 34.93 33.25 34.59 36.91 37.47 39.24 37.24 38.95 40.60 40.11 39.37 39.38 40.05 40.11 39.96 39.59 39.44 39.42 39.45 39.68 39.86 40.10 40.13 40.38 40.29 40.77 40.80
49.09 47.72 46.34 44.59 43.41 43.06 42.83 42.01 40.04 39.22 34.30 34.40 34.05 34.96 35.07 35.61 36.53 36.47 38.18 37.00 37.07 38.20 38.03 38.52 38.58 37.75 37.25 36.76 36.54 36.49 36.52 36.66 36.92 37.64 38.19 38.23 38.41 38.79
48.51 47.04 45.54 44.09 43.09 43.15 42.65 40.78 40.15 38.28 34.81 30.72 32.15 33.78 33.89 34.14 34.04 33.96 34.46 34.53 34.78 36.72 36.75 36.72 36.31 35.73 35.34 34.76 34.34 33.97 33.57 33.23 33.29 33.91 34.61 35.16 36.02 36.18
48.02 46.77 45.09 43.68 42.62 42.71 42.60 40.85 39.05 38.23 35.31 32.55 31.63 33.84 33.06 32.48 32.05 32.49 32.51 32.04 33.41 36.07 35.48 35.31 35.28 34.99 34.42 33.79 33.27 32.62 31.78 31.16 30.66 30.86 31.29 31.90 32.64 33.12
47.00 46.79 44.93 43.66 43.28 42.46 41.79 39.94 37.93 35.83 34.27 33.02 32.05 31.31 31.14 32.03 31.72 29.28 28.66 31.04 30.86 32.23 33.22 32.90 33.55 33.79 33.23 32.55 32.11 31.64 31.11 30.52 30.01 29.53 29.29 29.36 29.71 30.41
44.84 45.58 45.28 44.74 44.08 43.16 41.28 38.58 37.08 34.72 33.59 32.24 30.74 30.29 29.12 29.26 28.49 29.80 28.31 28.78 28.81 30.88 30.26 30.20 30.24 30.21 31.22 31.19 31.08 30.82 30.35 29.90 29.56 29.24 29.16 29.17 29.23 29.08
45.06 45.79 46.22 44.10 43.41 41.37 39.95 38.44 38.04 34.89 33.37 32.14 30.90 29.43 28.90 29.70 29.92 28.79 27.62 26.63 24.36 28.38 28.41 26.25 29.14 27.39 28.20 29.17 30.26 30.05 29.69 29.63 29.20 28.98 28.78 28.59 28.62 29.74
46.90 45.39 45.52 44.60 42.13 41.46 38.78 37.74 37.09 36.57 34.90 34.59 31.84 31.84 29.67 30.51 29.42 28.42 27.95 27.27 25.72 27.13 28.32 25.21 26.43 25.56 27.50 29.46 30.23 29.82 29.44 29.10 28.89 28.49 28.18 27.91 27.65 27.63
46.48 45.84 45.31 43.72 41.97 40.12 37.51 36.52 35.93 35.62 35.09 36.05 34.85 34.21 32.72 32.18 30.66 29.81 28.79 26.55 26.50 27.79 28.13 24.08 25.63 25.36 26.61 27.95 30.61 30.05 29.21 28.72 28.12 27.76 27.55 27.43 27.29 26.83
44.04 43.88 43.60 41.29 39.48 39.01 37.51 35.62 35.15 34.64 36.87 37.07 36.79 35.39 34.39 33.27 31.92 29.43 25.98 25.22 23.41 25.43 25.46 25.35 25.00 24.72 25.79 26.26 28.41 30.63 29.77 28.91 28.42 27.84 27.70 27.53 27.21 25.81
37.83 41.22 39.09 40.00 37.21 36.93 37.30 35.76 32.90 33.03 34.06 34.03 34.31 34.20 33.70 32.74 31.73 30.73 28.74 26.15 23.54 22.42 26.79 24.44 24.76 25.12 23.90 26.95 27.65 28.22 30.27 29.96 29.41 29.07 29.08 28.51 29.40 24.35
35.88 35.12 37.57 36.88 36.89 37.34 36.91 36.00 33.84 33.74 32.75 32.76 32.16 31.75 31.42 31.12 30.69 31.09 31.35 28.84 25.37 23.85 26.35 25.50 23.97 21.03 20.72 22.24 23.02 26.07 27.29 28.24 27.81 26.75 27.47 27.64 26.30 24.29
33.88 33.67 34.75 36.40 36.60 36.13 35.70 33.42 32.73 32.72 32.43 31.39 30.42 29.64 29.52 29.10 29.91 30.14 26.57 23.15 23.93 26.76 26.93 25.00 21.81 21.01 18.89 16.36 18.93 20.88 22.13 23.69 24.49 22.93 24.10 24.56 23.67 23.18
33.31 33.98 34.66 35.29 34.62 32.97 32.21 31.85 31.65 31.18 29.95 28.58 28.02 27.81 27.87 24.76 22.08 21.24 20.43 20.43 19.85 20.93 21.04 21.50 23.59 18.65 20.77 18.91 17.34 18.22 19.28 19.57 21.37 20.57 20.52 20.38 20.22 21.06
32.12 32.57 32.13 31.80 32.04 31.25 31.26 31.56 31.11 30.38 29.58 27.87 22.43 19.58 21.41 23.19 22.54 23.78 21.30 21.12 19.34 16.88 17.84 18.13 20.62 19.74 16.33 17.90 18.81 16.62 18.10 17.50 18.63 19.22 18.99 18.87 20.11 20.42
28.46 28.51 27.68 27.08 25.83 25.69 26.07 26.79 27.33 27.31 24.16 20.85 20.44 20.67 21.64 21.48 20.26 22.11 21.01 17.54 16.30 15.29 14.33 15.51 17.35 18.42 18.34 17.57 16.35 17.15 16.53 16.93 17.92 17.99 17.01 16.52 17.17 18.99
28.13 25.81 24.24 24.19 23.76 23.96 23.56 23.25 22.65 21.52 21.72 22.33 21.90 21.63 20.65 19.95 18.62 19.76 18.54 18.45 16.27 14.93 14.55 15.15 17.69 18.18 17.85 18.44 19.55 14.53 15.40 16.91 16.31 17.01 15.95 15.20 15.70 18.39
26.04 25.05 23.71 23.57 23.56 23.44 23.01 22.37 20.74 21.35 22.21 21.66 21.17 20.42 19.65 18.94 18.55 18.08 17.26 16.95 15.42 15.31 15.69 15.90 16.03 17.21 13.20 13.00 16.06 18.61 16.61 14.65 14.84 14.41 15.54 15.45 15.38 17.22
26.02 24.92 23.37 23.70 23.58 23.08 22.96 21.07 20.30 20.51 20.39 20.05 19.29 19.12 19.03 18.59 17.97 17.20 16.54 15.73 15.43 15.42 15.24 16.06 16.47 15.35 14.42 14.47 14.37 17.08 20.36 14.05 15.48 15.19 13.70 12.88 14.93 15.89
24.53 23.78 24.19 23.97 23.82 23.38 22.40 21.68 20.73 19.66 19.05 18.37 18.15 17.98 17.95 18.30 17.47 17.32 16.32 15.84 16.13 16.57 15.35 15.92 17.80 14.30 14.09 14.84 14.72 13.97 16.62 21.36 17.57 16.13 13.08 14.00 13.65 12.39
24.43 23.51 23.96 24.21 23.84 23.06 21.65 20.16 18.63 18.01 17.77 17.73 17.27 17.51 17.98 18.32 16.91 16.46 16.85 16.65 17.39 17.73 17.17 16.22 16.16 15.55 15.20 15.34 12.91 10.27 13.23 14.18 16.86 20.83 18.43 18.22 14.57 10.69
24.15 24.10 23.90 23.53 22.77 22.34 21.62 20.11 19.41 18.42 18.38 17.66 17.09 17.23 17.21 16.70 17.35 18.06 17.57 18.18 16.59 16.17 15.68 14.33 14.74 15.03 14.92 15.19 13.24 12.32 10.69 10.91 14.38 14.49 15.72 19.25 19.08 17.88
MSLP
1012.05 1012.47 1014.00 1015.04 1016.68 1017.42 1018.18 1017.72 1018.18 1021.90 1024.26 1025.77 1026.65 1027.49 1027.58 1027.69 1028.30 1028.74 1029.24 1029.66 1030.35 1031.07 1031.36 1031.69 1032.21 1032.52 1032.78 1032.27 1032.58 1032.74 1032.97 1033.26 1033.41 1033.64 1033.73 1034.13 1034.23 1034.38
1010.81 1012.01 1013.07 1014.34 1015.29 1016.58 1018.40 1019.19 1018.91 1018.98 1022.34 1024.35 1025.54 1026.54 1027.42 1027.76 1028.52 1029.14 1029.49 1030.04 1030.95 1031.38 1031.76 1032.02 1032.43 1033.00 1033.39 1033.38 1033.36 1033.62 1033.47 1033.63 1033.88 1034.39 1034.61 1034.90 1034.94 1034.76
1010.16 1011.01 1011.90 1013.01 1014.63 1015.62 1016.61 1017.41 1018.96 1020.00 1021.82 1024.09 1025.30 1026.27 1027.32 1027.69 1028.90 1029.50 1029.88 1030.72 1031.53 1031.75 1032.13 1032.37 1032.75 1033.39 1033.74 1034.30 1034.17 1034.28 1034.24 1034.50 1035.02 1035.24 1035.17 1035.29 1035.57 1035.63
1009.60 1010.06 1010.84 1012.15 1013.79 1014.75 1015.19 1015.92 1018.13 1019.09 1020.82 1023.19 1024.93 1025.92 1026.86 1027.79 1029.10 1029.88 1030.40 1031.25 1031.97 1032.15 1032.72 1032.99 1033.51 1034.10 1034.21 1034.40 1034.62 1034.90 1034.80 1035.00 1035.59 1036.02 1036.30 1036.27 1036.30 1036.18
1008.31 1009.20 1009.84 1010.91 1012.28 1013.71 1014.66 1015.70 1016.74 1018.40 1019.75 1022.22 1023.80 1025.52 1026.63 1028.10 1029.26 1030.16 1031.06 1031.75 1032.38 1032.33 1032.90 1033.40 1033.85 1034.26 1034.63 1034.96 1034.71 1035.39 1035.67 1035.74 1036.50 1036.55 1036.73 1036.76 1036.88 1037.02
1007.13 1007.87 1009.00 1009.78 1010.82 1012.30 1013.49 1014.63 1016.16 1017.51 1020.11 1021.52 1023.10 1024.78 1026.12 1027.83 1029.03 1029.94 1031.45 1032.03 1032.36 1032.88 1033.30 1033.69 1034.41 1034.97 1035.26 1035.51 1034.96 1035.59 1035.65 1036.05 1036.60 1036.76 1037.28 1037.58 1037.58 1037.55
1006.96 1007.07 1007.81 1008.75 1009.58 1010.57 1011.91 1013.72 1015.34 1016.61 1018.87 1020.78 1022.40 1023.96 1025.41 1026.85 1027.39 1029.17 1030.56 1031.92 1032.99 1033.16 1033.77 1033.88 1034.72 1035.37 1035.33 1035.73 1035.15 1035.65 1036.15 1036.36 1036.64 1037.02 1037.40 1037.75 1037.53 1037.67
1005.89 1006.31 1006.98 1008.09 1008.86 1009.49 1010.43 1011.63 1012.47 1014.42 1017.17 1018.56 1020.56 1022.08 1024.06 1025.11 1026.44 1027.70 1029.08 1030.79 1032.71 1033.43 1033.66 1034.60 1034.80 1035.53 1035.77 1035.80 1035.48 1035.79 1036.32 1036.31 1037.07 1037.59 1037.42 1037.55 1037.80 1037.65
1004.72 1005.52 1006.46 1007.06 1007.83 1009.07 1010.20 1011.13 1012.16 1013.04 1014.38 1016.06 1018.19 1020.03 1022.04 1023.16 1025.09 1027.02 1028.39 1029.63 1030.84 1032.46 1033.40 1034.88 1035.36 1035.78 1035.78 1035.68 1035.54 1035.87 1036.23 1036.72 1037.04 1037.61 1037.64 1037.66 1038.09 1038.04
1003.37 1004.24 1005.23 1006.12 1007.38 1008.43 1009.99 1011.08 1012.27 1013.57 1014.31 1015.41 1016.40 1018.28 1020.04 1021.89 1023.95 1025.31 1026.85 1029.27 1030.74 1032.15 1033.03 1034.08 1035.03 1035.59 1035.88 1035.60 1035.71 1035.74 1036.09 1036.97 1037.24 1037.38 1037.54 1037.90 1038.15 1038.42
1003.14 1003.53 1004.36 1005.08 1006.54 1007.54 1009.12 1010.59 1012.29 1013.79 1014.72 1014.82 1016.56 1017.77 1019.85 1021.31 1023.17 1025.46 1027.17 1028.37 1030.28 1031.72 1032.85 1033.38 1034.53 1035.30 1035.66 1035.79 1035.72 1035.72 1036.13 1036.80 1037.27 1037.49 1037.67 1037.82 1037.90 1038.37
1003.18 1003.41 1004.00 1004.84 1006.09 1007.28 1008.29 1009.81 1011.70 1013.13 1014.39 1016.06 1017.56 1018.86 1019.95 1021.56 1022.30 1023.50 1025.24 1026.49 1028.57 1031.17 1032.04 1032.67 1033.82 1034.51 1035.08 1035.34 1035.11 1035.73 1036.20 1036.48 1036.75 1037.11 1037.48 1037.47 1037.76 1038.39
1002.92 1003.52 1004.21 1004.74 1005.96 1006.95 1007.63 1009.17 1010.76 1012.74 1013.96 1015.88 1017.60 1019.19 1020.57 1021.65 1023.13 1024.15 1025.03 1025.69 1026.96 1028.75 1030.08 1031.45 1032.84 1033.52 1034.15 1034.58 1035.33 1035.74 1036.07 1036.33 1036.60 1037.00 1037.25 1037.68 1038.01 1038.40
1003.25 1003.88 1004.60 1005.41 1006.47 1007.23 1008.23 1009.75 1011.44 1012.73 1013.97 1016.02 1017.97 1019.35 1020.17 1021.53 1022.93 1024.27 1025.17 1026.58 1027.23 1027.40 1029.24 1030.43 1031.84 1032.41 1033.23 1034.40 1035.40 1036.14 1036.43 1036.47 1036.60 1037.32 1037.53 1037.93 1038.21 1038.63
1003.69 1004.33 1005.41 1006.50 1007.04 1008.03 1009.02 1010.07 1011.66 1013.14 1014.56 1016.11 1018.39 1019.57 1020.53 1021.60 1023.21 1025.19 1026.02 1026.99 1028.35 1029.10 1029.84 1030.49 1030.46 1032.14 1032.47 1033.49 1034.58 1035.56 1036.00 1036.70 1037.04 1037.60 1037.95 1038.27 1038.43 1038.78
1004.96 1005.68 1006.35 1007.25 1007.94 1008.84 1009.77 1010.85 1012.31 1013.91 1015.00 1016.61 1018.65 1020.32 1021.47 1022.04 1023.45 1024.81 1025.91 1027.20 1028.95 1030.54 1030.78 1030.59 1030.81 1031.34 1032.84 1033.34 1033.84 1035.04 1035.61 1036.37 1037.21 1037.61 1038.14 1038.49 1038.61 1038.68
1005.87 1006.62 1007.30 1008.19 1009.21 1010.23 1011.29 1012.49 1013.53 1014.64 1016.34 1017.71 1018.88 1020.39 1021.71 1022.16 1024.01 1024.92 1025.95 1027.36 1028.33 1029.83 1031.16 1031.49 1031.71 1032.06 1032.39 1033.22 1034.13 1034.89 1035.77 1036.59 1037.07 1037.59 1038.36 1038.55 1038.59 1038.46
1006.56 1007.54 1008.66 1009.40 1010.22 1011.25 1012.22 1013.55 1014.62 1015.56 1016.75 1018.14 1019.35 1020.45 1021.39 1022.50 1023.84 1025.21 1026.01 1026.66 1028.10 1029.54 1030.32 1031.17 1031.71 1032.23 1033.10 1033.93 1034.11 1035.05 1035.96 1036.56 1037.35 1037.83 1038.33 1038.23 1038.14 1038.06
1007.21 1008.31 1009.23 1010.15 1011.03 1011.91 1012.83 1013.94 1015.11 1016.17 1017.15 1018.25 1019.79 1020.89 1021.68 1022.67 1023.72 1025.03 1025.97 1026.73 1028.05 1028.91 1029.95 1030.73 1031.50 1031.66 1032.93 1034.32 1035.03 1035.22 1035.83 1036.70 1037.55 1037.85 1037.72 1037.71 1037.74 1037.77
1008.20 1008.88 1009.84 1010.58 1011.28 1012.20 1013.16 1014.21 1015.44 1016.69 1018.00 1018.89 1019.92 1020.88 1021.59 1022.35 1023.60 1025.08 1025.72 1026.20 1027.27 1028.83 1029.93 1030.87 1031.21 1031.73 1032.52 1033.57 1034.79 1035.29 1035.63 1036.82 1036.98 1037.04 1037.41 1037.82 1037.67 1037.77
1008.90 1009.45 1010.07 1010.96 1011.87 1012.66 1013.59 1014.67 1015.74 1017.01 1017.95 1018.84 1019.98 1020.87 1021.81 1022.36 1023.66 1024.67 1025.32 1026.05 1027.01 1028.27 1029.40 1030.37 1031.26 1032.07 1032.71 1033.39 1034.52 1035.54 1035.77 1035.70 1035.84 1036.05 1036.88 1037.21 1037.27 1037.51
1009.32 1009.93 1010.75 1011.44 1012.19 1012.85 1013.83 1014.98 1016.29 1017.26 1018.18 1019.05 1019.96 1020.73 1021.59 1022.34 1023.16 1024.05 1024.93 1025.73 1026.76 1027.73 1029.10 1030.50 1031.50 1032.09 1032.56 1033.10 1034.37 1035.01 1035.31 1035.48 1035.44 1035.50 1035.98 1036.19 1036.65 1036.92
1009.48 1010.04 1010.77 1011.50 1012.28 1013.14 1014.07 1015.10 1016.06 1017.04 1017.99 1018.84 1019.72 1020.58 1021.32 1022.10 1023.01 1023.79 1024.74 1025.62 1026.78 1027.86 1029.09 1030.37 1031.31 1031.89 1032.52 1033.04 1033.94 1034.37 1034.80 1035.15 1035.27 1035.59 1035.78 1035.80 1036.08 1036.31
Wind_Speed
15 15 11 8 5 3 5 13 15 9 6 7 5 7 5 6 10 8 10 19 15 15 15 15 15 15 14 16 16 16 16 15 15 14 15 11 13 13
12 17 13 10 11 10 10 5 4 9 9 5 3 9 8 7 12 9 11 18 16 16 16 15 15 15 15 15 16 15 16 16 15 13 13 12 13 13
15 17 17 16 12 13 12 8 5 4 9 5 4 12 11 12 9 7 11 9 9 17 16 16 16 16 16 16 16 16 17 17 15 13 13 13 12 13
16 17 18 14 17 16 14 15 11 7 8 16 13 12 13 13 10 11 9 7 7 15 16 16 17 16 17 16 17 16 17 17 15 14 13 12 13 14
17 17 18 21 19 15 15 14 13 9 13 12 12 11 10 10 11 10 9 9 7 17 17 16 16 17 16 16 17 16 16 16 14 13 12 12 12 12
18 19 18 22 22 20 16 17 15 15 13 13 14 13 12 13 10 10 9 7 8 8 11 10 13 15 15 14 16 15 15 15 14 13 12 10 9 9
13 16 19 25 30 26 17 17 19 16 14 15 14 14 13 14 15 11 10 8 5 5 6 6 5 5 8 11 14 15 14 14 14 12 11 9 9 6
15 16 18 26 27 32 33 35 30 25 21 17 16 18 19 16 12 15 14 13 9 2 7 4 5 5 4 4 14 15 14 15 14 11 12 11 10 11
15 15 15 15 23 22 27 32 29 33 30 23 23 20 20 20 17 17 16 13 6 8 9 6 3 4 4 6 14 14 14 14 13 11 11 12 11 12
14 17 18 17 19 23 22 22 22 21 22 16 21 20 17 20 19 16 17 11 9 10 6 7 4 4 4 4 13 13 13 12 11 10 9 8 9 9
12 13 14 18 26 32 23 21 18 14 16 23 22 26 30 32 24 16 13 13 8 9 3 4 5 4 4 4 4 12 12 11 9 7 5 5 5 8
5 10 19 21 31 33 23 22 19 17 16 15 15 19 27 26 32 19 17 15 9 6 7 5 7 5 5 3 5 3 4 11 9 6 2 4 7 4
7 6 8 25 31 30 28 20 21 19 20 17 15 14 15 16 12 10 13 12 8 3 9 5 5 4 2 4 3 3 4 4 4 3 4 12 12 6
9 6 9 25 27 26 20 27 28 20 14 13 13 13 14 14 11 10 9 7 4 5 14 6 5 5 4 3 4 3 3 3 5 5 6 8 9 6
8 14 23 21 25 20 31 32 22 13 13 14 12 10 10 11 13 11 11 14 12 9 5 3 8 5 3 5 6 4 5 3 5 6 4 3 3 2
18 15 15 14 15 16 18 15 11 11 12 12 10 9 10 11 11 9 10 10 9 5 8 6 8 7 4 5 4 6 5 5 4 4 4 3 2 3
14 10 9 10 11 9 10 10 10 11 10 11 12 12 10 12 10 9 10 5 6 6 4 4 8 8 7 6 5 5 6 4 4 5 3 2 2 3
9 10 9 9 11 10 11 10 9 12 11 11 11 12 12 12 11 8 7 8 11 8 8 5 8 7 4 6 6 6 3 4 4 5 3 3 1 1
9 8 9 9 9 9 10 10 10 9 12 11 12 11 11 11 13 10 8 10 9 9 7 7 7 7 5 3 2 2 5 3 5 4 3 3 2 3
7 9 9 8 9 10 9 10 10 10 10 11 11 10 11 12 12 10 9 11 11 8 8 7 6 5 5 7 5 3 7 5 5 4 3 1 3 7
7 7 8 8 8 9 9 10 11 10 10 11 10 10 10 11 10 9 9 12 14 10 11 8 6 7 7 6 4 3 3 8 6 4 3 2 1 1
6 8 7 8 9 10 10 10 10 10 10 9 10 10 9 9 10 11 10 12 10 9 7 7 8 7 3 3 5 4 4 2 2 7 9 7 4 2
7 8 8 8 8 9 10 10 10 10 9 9 10 9 10 10 9 9 9 9 9 9 10 8 6 4 4 3 6 4 4 3 3 3 2 6 8 6
Wind_Direction
184 174 169 150 137 134 172 173 148 151 166 182 147 181 157 142 132 124 120 118 125 135 130 119 114 111 105 102 99 97 92 89 84 78 74 75 64 58
184 181 173 165 152 140 163 197 330 129 158 158 137 152 152 127 137 125 128 124 137 139 137 125 120 115 108 103 100 95 93 87 81 80 76 70 62 61
190 186 181 165 164 161 160 145 136 109 135 107 116 143 137 133 135 128 123 120 135 136 138 123 120 119 111 105 101 97 91 84 76 74 74 71 68 64
198 185 176 167 169 169 166 155 161 147 132 144 143 152 145 135 134 124 122 117 136 135 131 124 127 122 117 114 107 103 96 91 86 79 77 76 72 69
194 188 175 170 171 173 172 168 150 132 132 145 141 145 133 134 129 122 125 123 130 136 133 131 131 130 126 121 113 108 103 97 92 89 84 78 75 73
195 190 180 180 175 174 169 161 151 132 142 140 144 142 141 148 137 133 130 137 137 133 130 128 130 130 126 125 117 115 111 107 100 97 94 87 78 72
192 192 185 186 182 175 162 159 155 137 146 147 149 152 154 157 159 153 143 137 124 136 135 131 122 125 126 124 120 119 115 110 106 101 102 99 74 75
196 195 192 190 183 178 169 165 160 151 160 157 157 160 165 164 154 158 151 154 152 206 137 129 139 136 130 135 128 120 118 112 111 104 95 91 68 83
205 196 200 188 179 174 172 167 164 157 157 157 158 170 164 167 155 155 157 156 134 151 143 148 152 143 164 150 136 133 124 121 121 115 99 87 85 78
200 197 192 179 178 168 163 160 157 158 155 158 164 163 163 155 161 154 145 120 103 150 152 156 167 159 171 164 159 147 137 139 135 129 116 105 93 77
198 181 185 170 169 160 161 155 150 151 158 148 156 149 154 151 148 140 150 141 130 163 172 129 160 134 163 177 193 166 162 161 157 154 159 166 150 117
157 175 169 166 162 164 157 151 148 150 137 126 133 139 145 154 153 158 158 158 133 126 193 133 151 160 159 175 176 160 178 180 178 183 218 276 185 122
145 133 164 158 160 161 150 151 151 143 130 130 130 136 142 147 152 151 163 153 142 110 165 132 154 139 94 130 102 164 172 154 129 111 127 113 111 102
140 120 133 155 150 143 138 131 134 130 126 130 134 145 147 148 145 144 114 93 58 136 153 137 137 154 133 111 138 132 117 134 129 127 117 109 93 87
124 133 131 132 131 129 131 126 124 126 132 131 143 143 144 127 116 103 92 93 77 75 84 146 141 137 123 131 142 148 136 106 128 130 119 112 116 122
106 107 111 107 106 116 117 112 121 132 138 136 125 115 125 129 125 133 123 117 106 83 52 57 111 120 125 113 130 141 134 143 144 136 126 121 152 169
109 103 100 102 103 100 98 106 113 117 121 126 131 131 136 126 128 133 130 131 120 136 117 72 74 79 74 130 110 129 137 126 152 141 143 175 213 214
106 113 112 117 120 125 120 117 113 118 125 130 130 140 141 139 136 135 129 126 131 138 130 131 131 107 86 52 72 129 117 137 157 166 164 182 203 226
114 118 121 126 126 125 123 125 121 121 131 130 140 143 138 133 137 139 133 131 131 132 135 142 137 138 114 129 55 145 141 155 162 177 191 186 206 256
114 125 126 127 124 127 125 123 122 126 136 140 138 142 140 142 141 149 147 139 135 138 139 149 153 141 146 152 152 164 182 151 184 174 173 190 255 290
116 113 118 124 129 127 125 126 132 140 142 138 139 142 146 144 141 143 136 140 140 146 152 161 159 112 108 107 92 140 190 202 170 161 146 190 239 292
127 127 128 131 135 133 128 130 130 135 137 142 144 143 145 149 146 145 146 146 150 149 136 124 135 131 113 126 156 162 175 170 236 233 188 193 173 243
142 140 138 135 133 137 137 141 142 142 146 145 146 147 147 142 145 142 142 142 139 134 140 137 141 143 159 156 160 157 156 166 164 176 200 222 213 237